Regional Weather Roundup
Issued by NWS Charleston, SC

Current Version | Previous Version | Graphics & Text | Print | Product List | Glossary On
Versions: 1 2 3 4 5 6 7 8 9 10 11 12 13 14 15 16 17 18 19 20 21 22 23 24 25 26 27 28 29 30 31 32 33 34 35 36 37 38 39 40 41 42 43 44 45 46 47 48 49 50
000 ASUS42 KCHS 302228 RWRCHS REGIONAL WEATHER ROUNDUP NATIONAL WEATHER SERVICE CHARLESTON SC 600 PM EDT TUE AUG 30 2016 NOTE: "FAIR" INDICATES FEW OR NO CLOUDS BELOW 12,000 FEET WITH NO SIGNIFICANT WEATHER AND/OR OBSTRUCTIONS TO VISIBILITY. NOT ALL STATIONS ARE QUALITY CONTROLLED. USE DATA WITH CAUTION... ESPECIALLY DEWPOINT OBSERVATIONS. SCZ027-030-031-034>040-042>050-302300- ...SOUTHEAST SOUTH CAROLINA... CITY SKY/WX TMP DP RH WIND PRES REMARKS N CHARLESTON MOSUNNY 86 71 60 NE7 29.98F HX 91 WATERFRONT PRK N/A 84 74 72 VRB3 29.97F HX 91 MOUNT PLEASANT FAIR 86 73 66 CALM 29.98S HX 93 JOHNS ISLAND FAIR 84 75 74 CALM 29.99S HX 92 PINOPOLIS N/A 84 73 70 CALM 29.93F HX 91 MONCKS CORNER FAIR 81 73 78 CALM 29.98F SUMMERVILLE FAIR 88 72 58 E5 30.00S HX 94 BEAUFORT MCAS PTSUNNY 86 72 62 E8 29.97F HX 92 BEAUFORT ARPT FAIR 84 72 65 E7 29.98S HILTON HEAD IS MOSUNNY 88 75 66 NE5 29.99F HX 97 WALTERBORO CLEAR 86 72 62 E6 30.00S HX 92 ALLENDALE FAIR 84 72 65 VRB3 29.98S ...SOUTHERN MIDLANDS AND PEE DEE... CITY SKY/WX TMP DP RH WIND PRES REMARKS GEORGETOWN FAIR 86 70 58 CALM 29.99F HX 90 KINGSTREE FAIR 88 59 37 CALM 29.98F ORANGEBURG CLOUDY 86 66 51 E7 29.99F BARNWELL NOT AVBL AIKEN FAIR 86 70 58 CALM 30.03F HX 90 MANNING FAIR 86 63 45 CALM 29.98F COLUMBIA PTSUNNY 90 63 40 VRB3 29.98F HX 91 SUMTER PTSUNNY 91 64 41 E10 29.97F HX 92 FLORENCE MOSUNNY 91 58 32 NE6 29.99F HX 90 MYRTLE BEACH MOSUNNY 90 66 45 S9 30.00S HX 92 N MYRTLE BEACH SUNNY 85 72 65 S8 29.98F HX 91 $$ GAZ063-065-086>088-099>101-113>116-118-119-134>141-150-302300- ...SOUTHEAST GEORGIA... CITY SKY/WX TMP DP RH WIND PRES REMARKS SAVANNAH ARPT PTSUNNY 86 69 56 E12 29.97F HX 90 HUNTER AAF MOSUNNY 84 77 79 E12 29.95S HX 94 FORT STEWART SUNNY 86 70 58 E12 29.94S HX 91 STATESBORO SUNNY 89 73 59 SE5 29.96S HX 96 SYLVANIA NOT AVBL CLAXTON FAIR 86 73 64 NE8 29.95F HX 93 ...CSRA...CENTRAL AND FAR SOUTHEAST GEORGIA... CITY SKY/WX TMP DP RH WIND PRES REMARKS THOMSON NOT AVBL AUGUSTA-BUSH CLOUDY 87 72 60 CALM 29.98F HX 93 AUGUSTA-DANIEL PTSUNNY 84 73 69 SE3 30.01S HX 90 SWAINSBORO FAIR 86 72 62 NE8 29.98S HX 92 VIDALIA CLOUDY 90 73 58 E10 29.94F HX 98 EASTMAN FAIR 92 56 29 SE6 29.96F HX 90 HAZLEHURST FAIR 91 71 51 CALM 29.93S HX 97 ALMA MOSUNNY 84 70 62 E7 29.93F WAYCROSS N/A 87 75 66 E15G21 29.94S HX 97 JESUP FAIR 86 75 70 E13 29.95S HX 95 BAXLEY FAIR 88 77 70 SE9 29.94S HX 100 BRUNSWICK MOSUNNY 82 75 78 E10 29.96S SAINT SIMONS CLOUDY 83 73 72 E9 29.95S $$ SCZ027-028-034-036>038-045-046-048>050-GAZ119-141-302300- ...LAKE AND SUPPLEMENTAL COASTAL OBSERVATIONS... STATION/POSITION TIME TEMP WIND PRES WAVE SWELL AIR SEA DIR/SP/G HT/PER HT/PER/DIR (UTC) (F) (DEG/KT/KT) (MB) (FT/S) (FT/S/D) WINYAH BAY NOT AVBL LAKE MURRAY 2100 87 80/ 5/ 10 1015.2F ACE BASIN NERRS 2100 86 70/ 3 1016.0S FORT PULASKI 2100 81 85 60/ 10/ 12 1015.7F SAPELO ISLAND 2100 86 100/ 10 1014.0F $$ ANZ835-935-AMZ111-154-330-350-352-354-370-450-454-472-302300- ...C-MAN AND BUOY OBSERVATIONS... STATION/POSITION TIME TEMP WIND PRES WAVE SWELL AIR SEA DIR/SP/G HT/PER HT/PER/DIR (UTC) (F) (DEG/KT/KT) (MB) (FT/S) (FT/S/D) BUOY 41004 2150 83 85 40/ 8/ 10 1014.8F 3/11 3/ 70/11 BUOY 41008 2150 81 85 90/ 8/ 10 1014.3S 4/ 6 3/150/ 6 FOLLY BEACH CMAN 2200 83 80/ 5/ 6 1015.7F CAPERS NEARSHORE 2108 83 84 30/ 6/ 10 1015.4F FRIPP NEARSHORE 2108 80 85 60/ 10/ 14 1015.1F STATION/POSITION TIME TEMP WIND PRES WAVE SWELL AIR SEA DIR/SP/G HT/PER HT/PER/DIR (UTC) (F) (DEG/KT/KT) (MB) (FT/S) (FT/S/D) 5E ST. MARYS GA 2201 85 N/A 5/11 2/100/11 FRYING PAN BUOY 2200 82 85 30/ 6/ 8 1014.6F BUOY 41025 2150 82 85 90/ 14/ 16 1013.9F 5/12 5/100/12 CAPE LOOKOUT NC 2200 83 30/ 12/ 15 1014.7F BUOY 41002 2150 83 84 210/ 6/ 8 1015.2F 5/11 5/ 60/11 BUOY 41010 NOT AVBL ST AUGUSTINE FL 2200 80 83 110/ 14/ 16 1013.1F $$

USA.gov is the U.S. government's official web portal to all federal, state and local government web resources and services.